,,Stat5,,Stat1,,Stat2,,Stat3,,Stat4,,Wind1,,Wind1,
time,status,PA1M_AVG,status,PR1M_SUM,status,RH1M_AVG,status,SR1M_AVG,status,TA1M_AVG,status,W1dAve1m,status,W1sAve1m,
2002-01-18, 00:00:00,VALID,916.57,VALID,0,VALID,97.6402,VALID,0.0169808,VALID,20.3433,VALID,38,VALID,0.0715144,
2002-01-18, 00:01:00,VALID,916.599,VALID,0,VALID,97.6529,VALID,0.0169808,VALID,20.3503,VALID,54,VALID,0.150493,
2002-01-18, 00:02:00,VALID,916.624,VALID,0,VALID,97.6236,VALID,0,VALID,20.3301,VALID,139,VALID,0.361431,
2002-01-18, 00:03:00,VALID,916.634,VALID,0,VALID,97.5804,VALID,0,VALID,20.3204,VALID,184,VALID,0.456926,
2002-01-18, 00:04:00,VALID,916.66,VALID,0,VALID,97.6071,VALID,0.0169808,VALID,20.3379,VALID,178,VALID,0.485642,
2002-01-18, 00:05:00,VALID,916.662,VALID,0,VALID,97.6402,VALID,0,VALID,20.3177,VALID,189,VALID,0.530101,
2002-01-18, 00:06:00,VALID,916.67,VALID,0,VALID,97.663,VALID,-0.0509425,VALID,20.3147,VALID,196,VALID,0.226563,
2002-01-18, 00:07:00,VALID,916.672,VALID,0,VALID,97.677,VALID,-0.0169808,VALID,20.3384,VALID,191,VALID,0.0973214,
2002-01-18, 00:08:00,VALID,916.679,VALID,0,VALID,97.6872,VALID,-0.0339617,VALID,20.315,VALID,190,VALID,0,
2002-01-18, 00:09:00,VALID,916.662,VALID,0,VALID,97.6351,VALID,0,VALID,20.3083,VALID,159,VALID,0,
2002-01-18, 00:10:00,VALID,916.658,VALID,0,VALID,97.5969,VALID,0,VALID,20.2894,VALID,148,VALID,0.0799279,
2002-01-18, 00:11:00,VALID,916.662,VALID,0,VALID,97.5855,VALID,-0.0169808,VALID,20.2765,VALID,140,VALID,0.469161,
2002-01-18, 00:12:00,VALID,916.649,VALID,0,VALID,97.6872,VALID,-0.0339617,VALID,20.2668,VALID,136,VALID,0.575087,
2002-01-18, 00:13:00,VALID,916.649,VALID,0,VALID,97.7266,VALID,-0.0169808,VALID,20.2834,VALID,135,VALID,0.363181,
2002-01-18, 00:14:00,VALID,916.646,VALID,0,VALID,97.7686,VALID,0,VALID,20.2762,VALID,143,VALID,0.456836,
2002-01-18, 00:15:00,VALID,916.639,VALID,0,VALID,97.808,VALID,0,VALID,20.2789,VALID,145,VALID,0.430715,
2002-01-18, 00:16:00,VALID,916.635,VALID,0,VALID,97.836,VALID,0,VALID,20.2827,VALID,141,VALID,0.149671,
2002-01-18, 00:17:00,VALID,916.629,VALID,0,VALID,97.8614,VALID,0,VALID,20.2926,VALID,134,VALID,0.239104,
2002-01-18, 00:18:00,VALID,916.623,VALID,0,VALID,97.8055,VALID,0,VALID,20.2794,VALID,134,VALID,0.253701,
2002-01-18, 00:19:00,VALID,916.619,VALID,0,VALID,97.6961,VALID,0,VALID,20.2566,VALID,117,VALID,0.422081,
2002-01-18, 00:20:00,VALID,916.611,VALID,0,VALID,97.7165,VALID,0,VALID,20.2342,VALID,110,VALID,0.566201,
2002-01-18, 00:21:00,VALID,916.606,VALID,0,VALID,97.7254,VALID,0.0169808,VALID,20.2208,VALID,116,VALID,0.606971,
2002-01-18, 00:22:00,VALID,916.584,VALID,0,VALID,97.7788,VALID,0,VALID,20.2086,VALID,123,VALID,0.832422,
2002-01-18, 00:23:00,VALID,916.568,VALID,0,VALID,97.8919,VALID,0.0169808,VALID,20.2076,VALID,102,VALID,0.977385,
2002-01-18, 00:24:00,VALID,916.545,VALID,0,VALID,97.8589,VALID,0.0509425,VALID,20.1947,VALID,94,VALID,1.01501,
2002-01-18, 00:25:00,VALID,916.524,VALID,0,VALID,97.747,VALID,0,VALID,20.1594,VALID,94,VALID,1.0368,
2002-01-18, 00:26:00,VALID,916.51,VALID,0,VALID,97.7139,VALID,0.0339617,VALID,20.0948,VALID,92,VALID,1.05572,
2002-01-18, 00:27:00,VALID,916.486,VALID,0,VALID,97.939,VALID,0,VALID,20.0757,VALID,93,VALID,0.921875,
2002-01-18, 00:28:00,VALID,916.483,VALID,0,VALID,98.0051,VALID,0.0169808,VALID,20.0719,VALID,90,VALID,0.910773,
2002-01-18, 00:29:00,VALID,916.48,VALID,0,VALID,97.9593,VALID,0.0339617,VALID,20.0469,VALID,88,VALID,0.736779,
2002-01-18, 00:30:00,VALID,916.478,VALID,0,VALID,98.0382,VALID,0.0169808,VALID,20.021,VALID,91,VALID,0.786914,
2002-01-18, 00:31:00,VALID,916.472,VALID,0,VALID,98.103,VALID,0.0169808,VALID,20.0016,VALID,98,VALID,0.73787,
2002-01-18, 00:32:00,VALID,916.455,VALID,0,VALID,98.3306,VALID,0,VALID,20.0208,VALID,103,VALID,0.844572,
2002-01-18, 00:33:00,VALID,916.448,VALID,0,VALID,98.3726,VALID,0,VALID,20.0466,VALID,96,VALID,0.851357,
2002-01-18, 00:34:00,VALID,916.41,VALID,0,VALID,98.2912,VALID,0.0339617,VALID,20.0367,VALID,85,VALID,1.02755,
2002-01-18, 00:35:00,VALID,916.397,VALID,0,VALID,98.2429,VALID,0.0169808,VALID,20.0215,VALID,89,VALID,1.04975,
2002-01-18, 00:36:00,VALID,916.376,VALID,0,VALID,98.3929,VALID,0,VALID,20.0014,VALID,101,VALID,0.898026,
2002-01-18, 00:37:00,VALID,916.362,VALID,0,VALID,98.4718,VALID,0.0169808,VALID,20.0307,VALID,136,VALID,0.852364,
2002-01-18, 00:38:00,VALID,916.343,VALID,0,VALID,98.4362,VALID,0.0169808,VALID,20.0404,VALID,134,VALID,0.835742,
2002-01-18, 00:39:00,VALID,916.331,VALID,0,VALID,98.4095,VALID,0.0169808,VALID,20.0342,VALID,129,VALID,1.07586,
2002-01-18, 00:40:00,VALID,916.312,VALID,0,VALID,98.3955,VALID,0,VALID,20.0046,VALID,128,VALID,0.930099,
2002-01-18, 00:41:00,VALID,916.301,VALID,0,VALID,98.4298,VALID,0,VALID,19.9852,VALID,130,VALID,1.12623,
2002-01-18, 00:42:00,VALID,916.279,VALID,0,VALID,98.4298,VALID,0.0339617,VALID,19.9755,VALID,128,VALID,1.07052,
2002-01-18, 00:43:00,VALID,916.26,VALID,0,VALID,98.4998,VALID,0,VALID,19.9731,VALID,129,VALID,0.959498,
2002-01-18, 00:44:00,VALID,916.251,VALID,0,VALID,98.5277,VALID,0,VALID,19.9698,VALID,141,VALID,0.457237,
2002-01-18, 00:45:00,VALID,916.234,VALID,0,VALID,98.5341,VALID,0,VALID,19.9696,VALID,138,VALID,0.731971,
2002-01-18, 00:46:00,VALID,916.222,VALID,0,VALID,98.5227,VALID,0.0169808,VALID,19.9698,VALID,114,VALID,0.75625,
2002-01-18, 00:47:00,VALID,916.228,VALID,0,VALID,98.5176,VALID,0,VALID,19.9408,VALID,99,VALID,0.49486,
2002-01-18, 00:48:00,VALID,916.214,VALID,0,VALID,98.5163,VALID,0.0339617,VALID,19.9211,VALID,94,VALID,0.201275,
2002-01-18, 00:49:00,VALID,916.218,VALID,0,VALID,98.5583,VALID,-0.0169808,VALID,19.9047,VALID,68,VALID,0,
2002-01-18, 00:50:00,VALID,916.208,VALID,0,VALID,98.5786,VALID,0,VALID,19.9079,VALID,68,VALID,0,
2002-01-18, 00:51:00,VALID,916.19,VALID,0,VALID,98.585,VALID,-0.0169808,VALID,19.902,VALID,68,VALID,0,
2002-01-18, 00:52:00,VALID,916.17,VALID,0,VALID,98.6104,VALID,0,VALID,19.8988,VALID,68,VALID,0.169408,
2002-01-18, 00:53:00,VALID,916.152,VALID,0,VALID,98.6142,VALID,0,VALID,19.9216,VALID,63,VALID,0.336739,
2002-01-18, 00:54:00,VALID,916.125,VALID,0,VALID,98.6447,VALID,-0.0169808,VALID,19.9214,VALID,268,VALID,0.258789,
2002-01-18, 00:55:00,VALID,916.105,VALID,0,VALID,98.6905,VALID,0.0169808,VALID,19.9504,VALID,275,VALID,0.246916,
2002-01-18, 00:56:00,VALID,916.094,VALID,0,VALID,98.7083,VALID,0,VALID,19.9634,VALID,252,VALID,0.429688,
2002-01-18, 00:57:00,VALID,916.083,VALID,0,VALID,98.7045,VALID,0.0169808,VALID,19.9668,VALID,229,VALID,0.384457,
2002-01-18, 00:58:00,VALID,916.074,VALID,0,VALID,98.7096,VALID,0.0169808,VALID,19.9636,VALID,234,VALID,0.448396,
2002-01-18, 00:59:00,VALID,916.091,VALID,0,VALID,98.7159,VALID,0,VALID,19.9532,VALID,240,VALID,0.595189,
2002-01-18, 01:00:00,VALID,916.088,VALID,0,VALID,98.7185,VALID,0,VALID,19.9599,VALID,256,VALID,0.275699,
2002-01-18, 01:01:00,VALID,916.095,VALID,0,VALID,98.7452,VALID,0,VALID,19.979,VALID,256,VALID,0.0452724,
2002-01-18, 01:02:00,VALID,916.089,VALID,0,VALID,98.7706,VALID,0,VALID,20.0123,VALID,256,VALID,0,
2002-01-18, 01:03:00,VALID,916.085,VALID,0,VALID,98.7757,VALID,0.0169808,VALID,20.0116,VALID,268,VALID,0.041324,
2002-01-18, 01:04:00,VALID,916.065,VALID,0,VALID,98.8075,VALID,0,VALID,20.0508,VALID,33,VALID,0.45148,
2002-01-18, 01:05:00,VALID,916.059,VALID,0,VALID,98.8227,VALID,0,VALID,20.0667,VALID,29,VALID,0.476357,
2002-01-18, 01:06:00,VALID,916.057,VALID,0,VALID,98.8202,VALID,0,VALID,20.099,VALID,27,VALID,0.254934,
2002-01-18, 01:07:00,VALID,916.029,VALID,0,VALID,98.8037,VALID,0,VALID,20.0958,VALID,27,VALID,0.0135691,
2002-01-18, 01:08:00,VALID,916.029,VALID,0,VALID,98.8024,VALID,0,VALID,20.1023,VALID,27,VALID,0.00102796,
2002-01-18, 01:09:00,VALID,916.002,VALID,0,VALID,98.7706,VALID,0,VALID,20.0861,VALID,27,VALID,0,
2002-01-18, 01:10:00,VALID,915.973,VALID,0,VALID,98.7643,VALID,0.0169808,VALID,20.0831,VALID,36,VALID,0.158594,
2002-01-18, 01:11:00,VALID,915.944,VALID,0,VALID,98.749,VALID,0.0169808,VALID,20.0603,VALID,75,VALID,0.376439,
2002-01-18, 01:12:00,VALID,915.928,VALID,0,VALID,98.735,VALID,0,VALID,20.0411,VALID,82,VALID,0.478413,
2002-01-18, 01:13:00,VALID,915.907,VALID,0,VALID,98.7261,VALID,0,VALID,20.0282,VALID,84,VALID,0.477179,
2002-01-18, 01:14:00,VALID,915.897,VALID,0,VALID,98.7261,VALID,0,VALID,20.0083,VALID,88,VALID,0.592105,
2002-01-18, 01:15:00,VALID,915.896,VALID,0,VALID,98.7032,VALID,0,VALID,19.9994,VALID,95,VALID,0.734992,
2002-01-18, 01:16:00,VALID,915.887,VALID,0,VALID,98.7108,VALID,0,VALID,19.9701,VALID,104,VALID,0.868421,
2002-01-18, 01:17:00,VALID,915.872,VALID,0,VALID,98.7528,VALID,0,VALID,19.9569,VALID,119,VALID,0.915465,
2002-01-18, 01:18:00,VALID,915.87,VALID,0,VALID,98.7897,VALID,-0.0169808,VALID,19.9567,VALID,126,VALID,0.597656,
2002-01-18, 01:19:00,VALID,915.862,VALID,0,VALID,98.7732,VALID,0.0339617,VALID,19.9572,VALID,111,VALID,0.63898,
2002-01-18, 01:20:00,VALID,915.842,VALID,0,VALID,98.7719,VALID,0,VALID,19.9408,VALID,94,VALID,0.516242,
2002-01-18, 01:21:00,VALID,915.814,VALID,0,VALID,98.7846,VALID,0,VALID,19.9306,VALID,85,VALID,0.545641,
2002-01-18, 01:22:00,VALID,915.801,VALID,0,VALID,98.8011,VALID,0.0169808,VALID,19.9149,VALID,85,VALID,0.476974,
2002-01-18, 01:23:00,VALID,915.779,VALID,0,VALID,98.777,VALID,-0.0339617,VALID,19.8993,VALID,87,VALID,0.549959,
2002-01-18, 01:24:00,VALID,915.765,VALID,0,VALID,98.796,VALID,-0.0169808,VALID,19.8965,VALID,84,VALID,0.368627,
2002-01-18, 01:25:00,VALID,915.767,VALID,0,VALID,98.7948,VALID,0,VALID,19.8732,VALID,83,VALID,0.317909,
2002-01-18, 01:26:00,VALID,915.756,VALID,0,VALID,98.7757,VALID,0,VALID,19.8508,VALID,82,VALID,0.532227,
2002-01-18, 01:27:00,VALID,915.757,VALID,0,VALID,98.8011,VALID,-0.0169808,VALID,19.8376,VALID,81,VALID,0.492393,
2002-01-18, 01:28:00,VALID,915.742,VALID,0,VALID,98.8024,VALID,-0.0169808,VALID,19.8279,VALID,84,VALID,0.701686,
2002-01-18, 01:29:00,VALID,915.743,VALID,0,VALID,98.8113,VALID,0.0169808,VALID,19.8342,VALID,86,VALID,0.547081,
2002-01-18, 01:30:00,VALID,915.722,VALID,0,VALID,98.8189,VALID,0,VALID,19.8215,VALID,85,VALID,0.60773,
2002-01-18, 01:31:00,VALID,915.704,VALID,0,VALID,98.8316,VALID,0,VALID,19.815,VALID,84,VALID,0.440584,
2002-01-18, 01:32:00,VALID,915.703,VALID,0,VALID,98.8355,VALID,0,VALID,19.8115,VALID,85,VALID,0.399877,
2002-01-18, 01:33:00,VALID,915.699,VALID,0,VALID,98.8507,VALID,0,VALID,19.8153,VALID,85,VALID,0.349359,
2002-01-18, 01:34:00,VALID,915.683,VALID,0,VALID,98.8494,VALID,-0.0339617,VALID,19.8118,VALID,85,VALID,0.347656,
2002-01-18, 01:35:00,VALID,915.668,VALID,0,VALID,98.8469,VALID,0,VALID,19.8185,VALID,85,VALID,0.0236431,
2002-01-18, 01:36:00,VALID,915.647,VALID,0,VALID,98.8609,VALID,0,VALID,19.8016,VALID,85,VALID,0.010074,
2002-01-18, 01:37:00,VALID,915.629,VALID,0,VALID,98.8723,VALID,0.0339617,VALID,19.8183,VALID,85,VALID,0.109375,
2002-01-18, 01:38:00,VALID,915.594,VALID,0,VALID,98.8825,VALID,0.101885,VALID,19.8302,VALID,85,VALID,0.129523,
2002-01-18, 01:39:00,VALID,915.567,VALID,0,VALID,98.894,VALID,0.101885,VALID,19.8299,VALID,114,VALID,0.200863,
2002-01-18, 01:40:00,VALID,915.55,VALID,0,VALID,98.8952,VALID,0.101885,VALID,19.8361,VALID,117,VALID,0,
2002-01-18, 01:41:00,VALID,915.532,VALID,0,VALID,98.9003,VALID,0.101885,VALID,19.8558,VALID,117,VALID,0.0286458,
2002-01-18, 01:42:00,VALID,915.526,VALID,0,VALID,98.8914,VALID,0.101885,VALID,19.852,VALID,117,VALID,0,
2002-01-18, 01:43:00,VALID,915.508,VALID,0,VALID,98.8901,VALID,0.101885,VALID,19.8426,VALID,117,VALID,0,
2002-01-18, 01:44:00,VALID,915.507,VALID,0,VALID,98.8787,VALID,0.0849042,VALID,19.8396,VALID,117,VALID,0,
2002-01-18, 01:45:00,VALID,915.49,VALID,0,VALID,98.8736,VALID,0.0849042,VALID,19.8361,VALID,202,VALID,0,
2002-01-18, 01:46:00,VALID,915.486,VALID,0,VALID,98.8787,VALID,0.0849042,VALID,19.8297,VALID,252,VALID,0,
2002-01-18, 01:47:00,VALID,915.467,VALID,0,VALID,98.8838,VALID,0.101885,VALID,19.8332,VALID,256,VALID,0.0805921,
2002-01-18, 01:48:00,VALID,915.447,VALID,0,VALID,98.8901,VALID,0.101885,VALID,19.8297,VALID,254,VALID,0.52611,
2002-01-18, 01:49:00,VALID,915.428,VALID,0,VALID,98.9016,VALID,0.0679233,VALID,19.8468,VALID,246,VALID,0.639423,
2002-01-18, 01:50:00,VALID,915.417,VALID,0,VALID,98.9232,VALID,0.101885,VALID,19.8428,VALID,243,VALID,0.523242,
2002-01-18, 01:51:00,VALID,915.404,VALID,0,VALID,98.9397,VALID,0.0849042,VALID,19.8528,VALID,243,VALID,0.528988,
2002-01-18, 01:52:00,VALID,915.403,VALID,0,VALID,98.9346,VALID,0.0339617,VALID,19.8595,VALID,244,VALID,0.318257,
2002-01-18, 01:53:00,VALID,915.391,VALID,0,VALID,98.9372,VALID,-0.0339617,VALID,19.867,VALID,244,VALID,0.0415296,
2002-01-18, 01:54:00,VALID,915.365,VALID,0,VALID,98.9448,VALID,0,VALID,19.8801,VALID,212,VALID,0.214844,
2002-01-18, 01:55:00,VALID,915.34,VALID,0,VALID,98.9461,VALID,0,VALID,19.8734,VALID,185,VALID,0.281867,
2002-01-18, 01:56:00,VALID,915.317,VALID,0,VALID,98.9423,VALID,0,VALID,19.8667,VALID,202,VALID,0.0252878,
2002-01-18, 01:57:00,VALID,915.296,VALID,0,VALID,98.9448,VALID,-0.0169808,VALID,19.8635,VALID,202,VALID,0.00160256,
2002-01-18, 01:58:00,VALID,915.287,VALID,0,VALID,98.9423,VALID,-0.0339617,VALID,19.864,VALID,202,VALID,0,
2002-01-18, 01:59:00,VALID,915.286,VALID,0,VALID,98.941,VALID,-0.0339617,VALID,19.8637,VALID,201,VALID,0,
2002-01-18, 02:00:00,VALID,915.28,VALID,0,VALID,98.9385,VALID,-0.0509425,VALID,19.8607,VALID,201,VALID,0,
2002-01-18, 02:01:00,VALID,915.286,VALID,0,VALID,98.941,VALID,-0.0509425,VALID,19.8635,VALID,182,VALID,0,
2002-01-18, 02:02:00,VALID,915.279,VALID,0,VALID,98.9308,VALID,0,VALID,19.864,VALID,153,VALID,0,
2002-01-18, 02:03:00,VALID,915.26,VALID,0,VALID,98.9308,VALID,-0.0339617,VALID,19.86,VALID,153,VALID,0,
2002-01-18, 02:04:00,VALID,915.255,VALID,0,VALID,98.9512,VALID,-0.0169808,VALID,19.8635,VALID,153,VALID,0,
2002-01-18, 02:05:00,VALID,915.234,VALID,0,VALID,98.9652,VALID,0,VALID,19.8858,VALID,153,VALID,0,
2002-01-18, 02:06:00,VALID,915.197,VALID,0,VALID,98.9817,VALID,-0.0339617,VALID,19.9022,VALID,153,VALID,0,
2002-01-18, 02:07:00,VALID,915.207,VALID,0,VALID,98.9601,VALID,-0.0169808,VALID,19.9127,VALID,152,VALID,0,
2002-01-18, 02:08:00,VALID,915.193,VALID,0,VALID,98.9626,VALID,-0.0169808,VALID,19.9092,VALID,124,VALID,0,
2002-01-18, 02:09:00,VALID,915.188,VALID,0,VALID,98.9232,VALID,-0.0339617,VALID,19.8829,VALID,114,VALID,0.0439967,
2002-01-18, 02:10:00,VALID,915.185,VALID,0,VALID,98.9359,VALID,0,VALID,19.8801,VALID,120,VALID,0.403577,
2002-01-18, 02:11:00,VALID,915.183,VALID,0,VALID,98.8889,VALID,-0.0169808,VALID,19.8607,VALID,93,VALID,0.652549,
2002-01-18, 02:12:00,VALID,915.174,VALID,0,VALID,98.8571,VALID,-0.0169808,VALID,19.8056,VALID,93,VALID,0.537007,
2002-01-18, 02:13:00,VALID,915.172,VALID,0,VALID,98.8698,VALID,-0.0339617,VALID,19.7795,VALID,92,VALID,0.688902,
2002-01-18, 02:14:00,VALID,915.18,VALID,0,VALID,98.894,VALID,-0.0339617,VALID,19.7633,VALID,105,VALID,0.31582,
2002-01-18, 02:15:00,VALID,915.181,VALID,0,VALID,98.9156,VALID,-0.0169808,VALID,19.7768,VALID,104,VALID,0.327919,
2002-01-18, 02:16:00,VALID,915.181,VALID,0,VALID,98.9321,VALID,-0.0339617,VALID,19.7835,VALID,124,VALID,0.316612,
2002-01-18, 02:17:00,VALID,915.181,VALID,0,VALID,98.9512,VALID,0,VALID,19.7795,VALID,149,VALID,0.482525,
2002-01-18, 02:18:00,VALID,915.184,VALID,0,VALID,98.9283,VALID,-0.0169808,VALID,19.7661,VALID,150,VALID,0.791735,
2002-01-18, 02:19:00,VALID,915.183,VALID,0,VALID,98.9118,VALID,-0.0169808,VALID,19.77,VALID,154,VALID,0.597451,
2002-01-18, 02:20:00,VALID,915.163,VALID,0,VALID,98.8978,VALID,-0.0339617,VALID,19.7442,VALID,150,VALID,0.9706,
2002-01-18, 02:21:00,VALID,915.171,VALID,0,VALID,98.8907,VALID,0,VALID,19.7211,VALID,134,VALID,0.590892,
2002-01-18, 02:22:00,VALID,915.156,VALID,0,VALID,98.9067,VALID,0,VALID,19.7246,VALID,126,VALID,0.341602,
2002-01-18, 02:23:00,VALID,915.148,VALID,0,VALID,98.9067,VALID,-0.0169808,VALID,19.7221,VALID,148,VALID,0.777138,
2002-01-18, 02:24:00,VALID,915.142,VALID,0,VALID,98.8723,VALID,0,VALID,19.6987,VALID,143,VALID,0.678043,
2002-01-18, 02:25:00,VALID,915.13,VALID,0,VALID,98.8711,VALID,0,VALID,19.6664,VALID,141,VALID,0.669613,
2002-01-18, 02:26:00,VALID,915.133,VALID,0,VALID,98.8622,VALID,-0.0169808,VALID,19.6441,VALID,124,VALID,0.371916,
2002-01-18, 02:27:00,VALID,915.13,VALID,0,VALID,98.8647,VALID,-0.0339617,VALID,19.6247,VALID,122,VALID,0.431332,
2002-01-18, 02:28:00,VALID,915.127,VALID,0,VALID,98.8596,VALID,0,VALID,19.6013,VALID,141,VALID,0.466694,
2002-01-18, 02:29:00,VALID,915.126,VALID,0,VALID,98.866,VALID,-0.0169808,VALID,19.579,VALID,145,VALID,0.157452,
2002-01-18, 02:30:00,VALID,915.117,VALID,0,VALID,98.8711,VALID,0,VALID,19.5695,VALID,141,VALID,0.05625,
2002-01-18, 02:31:00,VALID,915.12,VALID,0,VALID,98.8749,VALID,0,VALID,19.5601,VALID,141,VALID,0.00534539,
2002-01-18, 02:32:00,VALID,915.101,VALID,0,VALID,98.8749,VALID,-0.0169808,VALID,19.5464,VALID,141,VALID,0,
2002-01-18, 02:33:00,VALID,915.096,VALID,0,VALID,98.8698,VALID,0,VALID,19.5372,VALID,145,VALID,0.199219,
2002-01-18, 02:34:00,VALID,915.092,VALID,0,VALID,98.8393,VALID,0,VALID,19.5208,VALID,144,VALID,0.260074,
2002-01-18, 02:35:00,VALID,915.084,VALID,0,VALID,98.8406,VALID,0,VALID,19.5114,VALID,113,VALID,0.405428,
2002-01-18, 02:36:00,VALID,915.07,VALID,0,VALID,98.8329,VALID,-0.0169808,VALID,19.4923,VALID,70,VALID,0.557155,
2002-01-18, 02:37:00,VALID,915.062,VALID,0,VALID,98.8367,VALID,-0.0169808,VALID,19.4791,VALID,77,VALID,0.502804,
2002-01-18, 02:38:00,VALID,915.045,VALID,0,VALID,98.8189,VALID,0,VALID,19.4597,VALID,92,VALID,0.308594,
2002-01-18, 02:39:00,VALID,915.018,VALID,0,VALID,98.8037,VALID,-0.0169808,VALID,19.4373,VALID,89,VALID,0.357113,
2002-01-18, 02:40:00,VALID,914.998,VALID,0,VALID,98.7795,VALID,0,VALID,19.4247,VALID,88,VALID,0.0328947,
2002-01-18, 02:41:00,VALID,914.978,VALID,0,VALID,98.7681,VALID,0,VALID,19.3919,VALID,88,VALID,0,
2002-01-18, 02:42:00,VALID,914.953,VALID,0,VALID,98.7795,VALID,0.0169808,VALID,19.3822,VALID,88,VALID,0,
2002-01-18, 02:43:00,VALID,914.943,VALID,0,VALID,98.7897,VALID,0,VALID,19.3693,VALID,88,VALID,0,
2002-01-18, 02:44:00,VALID,914.907,VALID,0,VALID,98.7859,VALID,0.0169808,VALID,19.3857,VALID,140,VALID,0.16324,
2002-01-18, 02:45:00,VALID,914.899,VALID,0,VALID,98.7897,VALID,0,VALID,19.3797,VALID,164,VALID,0.106771,
2002-01-18, 02:46:00,VALID,914.889,VALID,0,VALID,98.8049,VALID,0,VALID,19.3757,VALID,169,VALID,0,
2002-01-18, 02:47:00,VALID,914.893,VALID,0,VALID,98.8215,VALID,0,VALID,19.3891,VALID,193,VALID,0.173109,
2002-01-18, 02:48:00,VALID,914.883,VALID,0,VALID,98.8215,VALID,-0.0169808,VALID,19.3792,VALID,215,VALID,0.416118,
2002-01-18, 02:49:00,VALID,914.899,VALID,0,VALID,98.8062,VALID,-0.0169808,VALID,19.3601,VALID,211,VALID,0.495271,
2002-01-18, 02:50:00,VALID,914.887,VALID,0,VALID,98.8049,VALID,-0.0509425,VALID,19.3439,VALID,190,VALID,0.54523,
2002-01-18, 02:51:00,VALID,914.905,VALID,0,VALID,98.8126,VALID,-0.0339617,VALID,19.3345,VALID,171,VALID,0.196546,
2002-01-18, 02:52:00,VALID,914.927,VALID,0,VALID,98.8253,VALID,-0.0339617,VALID,19.3178,VALID,163,VALID,0.513158,
2002-01-18, 02:53:00,VALID,914.944,VALID,0,VALID,98.8227,VALID,-0.0339617,VALID,19.3183,VALID,152,VALID,0.279447,
2002-01-18, 02:54:00,VALID,914.964,VALID,0,VALID,98.8139,VALID,0,VALID,19.2992,VALID,134,VALID,0.339453,
2002-01-18, 02:55:00,VALID,914.972,VALID,0,VALID,98.8126,VALID,-0.0169808,VALID,19.2994,VALID,117,VALID,0.27241,
2002-01-18, 02:56:00,VALID,914.982,VALID,0,VALID,98.7846,VALID,-0.0339617,VALID,19.2798,VALID,107,VALID,0.464638,
2002-01-18, 02:57:00,VALID,914.973,VALID,0,VALID,98.7643,VALID,-0.0339617,VALID,19.2276,VALID,88,VALID,0.469367,
2002-01-18, 02:58:00,VALID,914.966,VALID,0,VALID,98.7693,VALID,-0.0169808,VALID,19.2219,VALID,80,VALID,0.687706,
2002-01-18, 02:59:00,VALID,914.957,VALID,0,VALID,98.7871,VALID,-0.0169808,VALID,19.1988,VALID,113,VALID,0.339638,
2002-01-18, 03:00:00,VALID,914.933,VALID,0,VALID,98.8304,VALID,-0.0339617,VALID,19.1991,VALID,129,VALID,0.167146,
2002-01-18, 03:01:00,VALID,914.926,VALID,0,VALID,98.852,VALID,-0.0509425,VALID,19.1986,VALID,141,VALID,0.41226,
2002-01-18, 03:02:00,VALID,914.909,VALID,0,VALID,98.8927,VALID,-0.0509425,VALID,19.2184,VALID,164,VALID,0.395898,
2002-01-18, 03:03:00,VALID,914.891,VALID,0,VALID,98.8927,VALID,-0.0339617,VALID,19.2249,VALID,165,VALID,0.404605,
2002-01-18, 03:04:00,VALID,914.87,VALID,0,VALID,98.9003,VALID,-0.0509425,VALID,19.2247,VALID,160,VALID,0.238692,
2002-01-18, 03:05:00,VALID,914.87,VALID,0,VALID,98.8838,VALID,-0.0679233,VALID,19.2219,VALID,155,VALID,0.118421,
2002-01-18, 03:06:00,VALID,914.859,VALID,0,VALID,98.8723,VALID,-0.0849042,VALID,19.2219,VALID,151,VALID,0.280428,
2002-01-18, 03:07:00,VALID,914.86,VALID,0,VALID,98.8278,VALID,-0.0169808,VALID,19.2023,VALID,139,VALID,0.549753,
2002-01-18, 03:08:00,VALID,914.857,VALID,0,VALID,98.8164,VALID,-0.0339617,VALID,19.173,VALID,131,VALID,0.427426,
2002-01-18, 03:09:00,VALID,914.849,VALID,0,VALID,98.7859,VALID,0,VALID,19.1407,VALID,110,VALID,0.514223,
2002-01-18, 03:10:00,VALID,914.836,VALID,0,VALID,98.7884,VALID,0,VALID,19.125,VALID,74,VALID,0.55,
2002-01-18, 03:11:00,VALID,914.827,VALID,0,VALID,98.8113,VALID,-0.0169808,VALID,19.0955,VALID,76,VALID,0.614926,
2002-01-18, 03:12:00,VALID,914.814,VALID,0,VALID,98.8291,VALID,-0.0169808,VALID,19.0922,VALID,77,VALID,0.605674,
2002-01-18, 03:13:00,VALID,914.804,VALID,0,VALID,98.8571,VALID,-0.0169808,VALID,19.0853,VALID,100,VALID,0.774671,
2002-01-18, 03:14:00,VALID,914.812,VALID,0,VALID,98.8711,VALID,0,VALID,19.1022,VALID,110,VALID,0.731291,
2002-01-18, 03:15:00,VALID,914.813,VALID,0,VALID,98.8634,VALID,0,VALID,19.0927,VALID,110,VALID,0.528372,
2002-01-18, 03:16:00,VALID,914.836,VALID,0,VALID,98.8329,VALID,0,VALID,19.08,VALID,114,VALID,0.471423,
2002-01-18, 03:17:00,VALID,914.842,VALID,0,VALID,98.838,VALID,-0.0169808,VALID,19.0537,VALID,121,VALID,0.349159,
2002-01-18, 03:18:00,VALID,914.846,VALID,0,VALID,98.8507,VALID,0,VALID,19.054,VALID,138,VALID,0.911719,
2002-01-18, 03:19:00,VALID,914.841,VALID,0,VALID,98.8584,VALID,0.0169808,VALID,19.0408,VALID,126,VALID,0.561472,
2002-01-18, 03:20:00,VALID,914.817,VALID,0,VALID,98.8571,VALID,-0.0169808,VALID,19.0281,VALID,105,VALID,0.424137,
2002-01-18, 03:21:00,VALID,914.8,VALID,0,VALID,98.8062,VALID,0,VALID,18.9924,VALID,82,VALID,0.77611,
2002-01-18, 03:22:00,VALID,914.779,VALID,0,VALID,98.8164,VALID,0,VALID,18.9762,VALID,81,VALID,0.899465,
2002-01-18, 03:23:00,VALID,914.765,VALID,0,VALID,98.8355,VALID,-0.0169808,VALID,18.9861,VALID,71,VALID,0.856291,
2002-01-18, 03:24:00,VALID,914.759,VALID,0,VALID,98.7973,VALID,0,VALID,18.9536,VALID,62,VALID,0.864515,
2002-01-18, 03:25:00,VALID,914.744,VALID,0,VALID,98.7897,VALID,-0.0169808,VALID,18.9469,VALID,79,VALID,0.986979,
2002-01-18, 03:26:00,VALID,914.744,VALID,0,VALID,98.796,VALID,-0.0169808,VALID,18.9573,VALID,90,VALID,0.813281,
2002-01-18, 03:27:00,VALID,914.761,VALID,0,VALID,98.824,VALID,-0.0339617,VALID,18.9568,VALID,96,VALID,0.94778,
2002-01-18, 03:28:01,VALID,914.755,VALID,0,VALID,98.8393,VALID,-0.0169808,VALID,18.9628,VALID,112,VALID,0.837171,
2002-01-18, 03:29:00,VALID,914.767,VALID,0,VALID,98.8329,VALID,-0.0339617,VALID,18.9702,VALID,127,VALID,0.731702,
2002-01-18, 03:30:00,VALID,914.762,VALID,0,VALID,98.8177,VALID,-0.0339617,VALID,18.9638,VALID,129,VALID,0.792352,
2002-01-18, 03:31:00,VALID,914.753,VALID,0,VALID,98.7821,VALID,-0.0169808,VALID,18.9444,VALID,108,VALID,0.603413,
2002-01-18, 03:32:00,VALID,914.753,VALID,0,VALID,98.6803,VALID,0,VALID,18.8724,VALID,71,VALID,0.610197,
2002-01-18, 03:33:00,VALID,914.728,VALID,0,VALID,98.5417,VALID,-0.0339617,VALID,18.7854,VALID,61,VALID,0.787059,
2002-01-18, 03:34:00,VALID,914.706,VALID,0,VALID,98.515,VALID,0,VALID,18.7409,VALID,63,VALID,0.996289,
2002-01-18, 03:35:00,VALID,914.676,VALID,0,VALID,98.5824,VALID,-0.0169808,VALID,18.7181,VALID,74,VALID,1.02817,
2002-01-18, 03:36:00,VALID,914.65,VALID,0,VALID,98.6435,VALID,-0.0339617,VALID,18.7379,VALID,85,VALID,1.17167,